ROMMA est une association bénévole à but non lucratif. Votre soutien est indispensable : ADHERER à ROMMA ou FAIRE un DON

Chambon - (38, Isère)

Oisans (2460 m)   Longitude: 06° 10' 42" E   Latitude: 45° 01' 32" N Station partenaire n°803
 

Détail journalier du     <<     >>

Température Humidité Vent Dir Rafale Dir. rafale Neige 1 Neige 2
Heure (°C) (%) (km/h) (km/h) (cm) (cm)
01:00 -3.410020SO34SO028
02:00 -3.310017SO29SO029
03:00 -3.99924SSO42SSO029
04:00 -4.49535SSO68SSO030
05:00 -3.19031SSO61SSO028
06:00 -1.59432SO58SO027
07:00 -1.49736SSO62SSO027
08:00 -0.79336SSO69SSO029
09:00 -0.49640SSO72SSO028
10:00 -0.49739SSO80SSO030
11:00 -0.29847SSO79SSO032
12:00 -0.29948SSO92SO031
13:00 -0.310043SO83SO031
14:00 -0.510042OSO71OSO031
15:00 -0.610034OSO57OSO031
16:00 -0.810023OSO39OSO031
17:00 -1.110023OSO35OSO033
18:00 -0.410026SSO65SSO034
19:00 -1.110023SSO51SSO034
20:00 -1.310020SO39SO035
21:00 -1.410016OSO27OSO035
22:00 -1.610020SO52SO038
23:00 -2.310014NNE36NE038
minuit -2.410013NNE28NNE042

Graphique du 04-11-2019

 

Serveur OMMA